This is the latest recevied weather packets stored in our database for station/object 1NW106. If no packets are shown the sender has not sent any weather packets the latest 10 day(s).
| Time | Temp. | Humidity | Pressure | Rain* | Wind** | Luminosity | Snow |
|---|---|---|---|---|---|---|---|
| 1787811569 | 29.44° C | 80% | 1007.3 hPa | 14.73 mm | - | - | - |
| 1787810969 | 28.89° C | 79% | 1007.7 hPa | 14.73 mm | - | - | - |
| 1787810369 | 28.89° C | 78% | 1008 hPa | 14.73 mm | - | - | - |
| 1787809769 | 28.89° C | 78% | 1008.1 hPa | 14.73 mm | - | - | - |
| 1787809169 | 28.89° C | 80% | 1008.3 hPa | 14.73 mm | - | - | - |
| 1787808569 | 28.89° C | 79% | 1008.6 hPa | 14.73 mm | - | - | - |
| 1787807969 | 28.89° C | 79% | 1008.6 hPa | 14.73 mm | - | - | - |
| 1787807369 | 28.89° C | 79% | 1008.9 hPa | 14.73 mm | - | - | - |
| 1787806788 | 28.89° C | 80% | 1008.9 hPa | 14.73 mm | - | - | - |
| 1787806169 | 28.89° C | 80% | 1009.1 hPa | 14.73 mm | - | - | - |
| 1787805581 | 28.89° C | 80% | 1009.2 hPa | 14.73 mm | - | - | - |
| 1787804969 | 28.89° C | 80% | 1009.3 hPa | 14.73 mm | - | - | - |
| 1787804369 | 28.33° C | 83% | 1009.1 hPa | 14.73 mm | - | - | - |
| 1787803769 | 28.33° C | 86% | 1009 hPa | 14.73 mm | - | - | - |
| 1787803169 | 28.33° C | 89% | 1008.5 hPa | 14.73 mm | - | - | - |
| 1787802571 | 27.78° C | 90% | 1008.4 hPa | 14.73 mm | - | - | - |
| 1787801969 | 27.78° C | 90% | 1008.4 hPa | 14.73 mm | - | - | - |
| 1787801369 | 27.78° C | 91% | 1008.5 hPa | 14.73 mm | - | - | - |
| 1787800770 | 27.78° C | 89% | 1008.7 hPa | 14.73 mm | - | - | - |
| 1787800173 | 28.33° C | 86% | 1009 hPa | 14.73 mm | - | - | - |
| 1787799569 | 27.78° C | 85% | 1009.1 hPa | 14.73 mm | - | - | - |
| 1787798969 | 27.78° C | 84% | 1009.1 hPa | 14.73 mm | - | - | - |
| 1787798373 | 27.78° C | 84% | 1009.1 hPa | 14.73 mm | - | - | - |
| 1787797769 | 28.33° C | 80% | 1009.3 hPa | 14.73 mm | - | - | - |
| 1787797169 | 28.89° C | 83% | 1009.2 hPa | 14.73 mm | - | - | - |
* Rain latest hour (hover to see other rain measurements)
** Current wind speed in m/s (hover to see current wind gust speed)